Regional Weather Roundup
Issued by NWS State College, PA

Home | Current Version | Previous Version | Text Only | Print | Product List | Glossary Off
Versions: 1 2 3 4 5 6 7 8 9 10 11 12 13 14 15 16 17 18 19 20 21 22 23 24 25 26 27 28 29 30 31 32 33 34 35 36 37 38 39 40 41 42 43 44 45 46 47 48 49 50

000
ASUS41 KCTP 292210
RWRCTP

REGIONAL WEATHER ROUNDUP
NATIONAL WEATHER SERVICE STATE COLLEGE PA
600 PM EDT FRI APR 29 2016

Note: "fair" indicates few or no clouds below 12,000 feet with no
significant weather and/or obstructions to visibility.

* = STATION THAT DOES NOT REPORT PRECIPITATION /E.G. RAIN...SNOW...ETC/
    THUNDER OR FOG.

PAZ002>004-007>009-013>016-020>023-029>032-292300-
WESTERN PENNSYLVANIA

CITY           SKY/WX    TMP DP  RH WIND       PRES   REMARKS
ERIE           SUNNY     45  36  70 NE17      30.06F
MEADVILLE      CLOUDY    42  41  96 N7        30.03R
FRANKLIN*      CLOUDY    46  43  87 N3        30.04R
NEW CASTLE     CLOUDY    49  47  93 NW5       30.05R
BEAVER COUNTY  CLOUDY    50  46  87 NW8       30.03
BUTLER*        CLOUDY    50  46  87 NW3       30.06R
PITTSBURGH INT LGT RAIN  53  48  83 N10       30.02R
PITTSBURGH     CLOUDY    55  47  74 NW5       30.01R
INDIANA*       CLOUDY    52  50  93 NW5       30.04R
LATROBE        CLOUDY    55  52  88 NW9       30.02R
WASHINGTON CO* CLOUDY    57  46  67 W7        30.02R
$$

PAZ004>006-010>012-017>019-024>028-033>037-041-042-045-046-049>053-292300-
CENTRAL PENNSYLVANIA

CITY           SKY/WX    TMP DP  RH WIND       PRES   REMARKS
BRADFORD       LGT RAIN  46  42  86 CALM      30.01S FOG
DUBOIS         CLOUDY    47  45  93 NW7       30.01R FOG
CLEARFIELD     FOG       47  45  93 NE3       30.01R VSB 1
JOHNSTOWN      CLOUDY    52  44  74 W13       29.98S
ALTOONA        LGT RAIN  48  45  89 E5        30.01R FOG
STATE COLLEGE  CLOUDY    45  45 100 SE5       30.02R FOG
WILLIAMSPORT   LGT RAIN  47  44  90 NE6       30.03S
SELINSGROVE    CLOUDY    48  44  86 E3        30.05S
FT INDIANTOWN  CLOUDY    48  47  99 E2        30.04S
CAPITAL CITY   CLOUDY    50  45  83 SE5       30.04F
HARRISBURG     DRIZZLE   50  46  86 SE6       30.03F FOG
YORK           CLOUDY    50  47  89 E6        30.03S
$$

PAZ038>040-043-044-047-048-054-055-060>062-067>071-292300-
EASTERN PENNSYLVANIA

CITY           SKY/WX    TMP DP  RH WIND       PRES   REMARKS
SCRANTON       LGT RAIN  48  42  80 CALM      30.03S
MOUNT POCONO   CLOUDY    43  33  68 SE8       30.03R
ALLENTOWN      CLOUDY    49  41  74 SE6       30.07S
QUAKERTOWN*    CLOUDY    48  41  76 SE7       30.07S
READING        CLOUDY    51  39  63 SE7       30.04F
LANCASTER      CLOUDY    50  44  80 SE10      30.04F
COATESVILLE    CLOUDY    48  46  93 E10       30.06S
POTTSTOWN      CLOUDY    48  41  76 E6        30.07F
BLUE BELL      CLOUDY    46  41  81 E7        30.06S
DOYLESTOWN     CLOUDY    47  43  86 CALM      30.06F
WILLOW GROVE   NOT AVBL
NORTH PHILA    CLOUDY    50  43  77 E12       30.09S
PHILADELPHIA   CLOUDY    50  43  77 E12       30.07F
$$




USA.gov is the U.S. government's official web portal to all federal, state and local government web resources and services.